Location: Hiram
(41.3130°N, 81.1440°W)
Time: 15:27:01
(UTC-05:00)

Daily predictions for brighter satellites

Satellite Brightness Start Highest point End
(mag) Time Altitude Azimuth Time Altitude Azimuth Time Altitude Azimuth
Cosmos 2278 Rocket 2.2 17:18:51 10° SSW 17:24:29 72° ESE 17:30:10 10° NNE
Cosmos 1816 Rocket 4.5 17:21:25 10° N 17:27:35 78° E 17:33:44 10° S
Cosmos 1814 Rocket 4.1 17:24:16 10° NNW 17:29:40 87° ENE 17:35:01 10° SSE
Cosmos 540 Rocket 4.2 17:25:07 10° N 17:29:43 31° ENE 17:34:16 10° SE
Meteor 1-14 Rocket 4.3 17:25:02 10° N 17:30:37 60° ENE 17:36:05 10° SSE
ALOS 3.8 17:30:13 10° E 17:32:48 15° ENE 17:35:23 10° NNE
Cosmos 1437 3.4 17:31:23 10° SSW 17:34:30 57° WNW 17:37:38 10° N
Cosmos 1725 Rocket 4.4 17:28:46 10° SSW 17:35:02 72° W 17:41:18 10° N
SL-27 R/B 2.7 17:31:53 10° N 17:35:05 41° ENE 17:38:16 10° SE
YAOGAN 1 3.4 17:32:32 10° SE 17:36:15 29° ENE 17:39:59 10° N
COSMO-SKYMED 1 3.9 17:33:50 10° NE 17:37:01 20° E 17:40:11 10° SE
CZ-4C R/B 3.6 17:32:01 10° NNW 17:38:02 30° NE 17:44:40 10° E
Meteor 1-28 Rocket 3.7 17:35:14 10° NNE 17:38:42 38° E 17:42:11 10° SSE
SMAP 3.1 17:34:19 10° SSE 17:38:52 59° ENE 17:43:27 10° N
USA 161 3.5 17:37:18 10° NNW 17:38:54 20° WNW 17:40:36 10° SW
Meteor 1-26 Rocket 4.3 17:36:38 10° S 17:42:13 86° W 17:47:46 10° N
Cosmos 1503 Rocket 4.5 17:37:40 10° S 17:42:34 41° ESE 17:47:28 10° NE
Ariane Rocket 3.0 17:38:28 10° SSE 17:43:32 75° ENE 17:48:37 10° N
Cosmos 1606 3.1 17:42:32 10° SSE 17:46:04 40° E 17:49:38 10° NNE
Cosmos 841 Rocket 3.5 17:41:14 10° NNW 17:46:33 83° ENE 17:51:47 10° SSE
IRS-1A Rocket 4.4 17:44:56 10° SSE 17:50:34 55° ENE 17:56:07 10° N
Landsat 4 4.3 17:48:07 10° NNE 17:51:41 38° E 17:55:14 10° SSE
METEOR-M 4.5 17:48:26 10° SE 17:53:24 41° ENE 17:58:22 10° N
CSL-04 Rocket 3.9 17:51:03 10° S 17:56:20 75° WSW 18:01:42 10° NNW
Cosmos 1703 Rocket 3.5 17:52:39 10° S 17:57:05 67° E 18:01:31 10° NNE
Cosmos 1484 Rocket 2.9 17:54:26 10° S 17:58:18 80° W 18:02:16 10° NNW
EO 1 Del DPAF 4.1 17:57:04 10° NE 18:00:25 29° E 18:03:47 10° SSE
Cosmos 2221 Rocket 3.8 17:56:55 10° SSE 18:01:06 45° E 18:05:19 10° NNE
Cosmos 1486 Rocket 4.4 17:58:13 10° SSW 18:03:23 66° WNW 18:08:38 10° NNE
Cosmos 2082 Rocket 2.2 17:58:55 10° NNW 18:04:34 63° ENE 18:10:09 10° SE
CENTAUR R/B 4.1 18:02:09 10° W 18:07:32 29° NW 18:13:35 10° NNE
ERS-2 2.4 18:04:07 10° SE 18:07:38 45° ENE 18:11:10 10° N
CZ-4 R/B 1.3 18:05:56 10° SSE 18:09:47 84° WSW 18:13:39 10° NNW
MOS 1 4.4 18:04:25 10° SE 18:09:55 52° ENE 18:15:27 10° N
COSMOS 2455 4.3 18:05:37 10° WSW 18:11:01 34° NW 18:16:26 10° NNE
Meteor 2-6 Rocket 4.2 18:08:00 10° S 18:13:20 61° E 18:18:51 10° NNE
Meteor 1-20 Rocket 4.4 18:10:37 10° NNW 18:16:09 72° W 18:21:34 10° S
Cosmos 1602 4.1 18:12:40 10° N 18:16:18 39° ENE 18:19:56 10° SSE
Okean 2 Rocket 3.2 18:12:39 10° N 18:17:05 51° E 18:21:29 10° SSE
Cosmos 1633 2.7 18:16:01 10° N 18:19:42 77° W 18:23:21 10° S
Cosmos 1354 Rocket 4.0 18:17:06 10° SSW 18:22:23 87° WNW 18:27:41 10° NNE
CZ-4 R/B 4.4 18:18:15 10° SSE 18:22:24 85° E 18:26:36 10° NNW
Cosmos 405 Rocket 2.7 18:19:05 10° S 18:22:46 54° E 18:25:14 19° NNE
SKYMED 2 3.5 18:20:57 10° NNE 18:25:18 66° ESE 18:29:36 10° S
Cosmos 1782 3.4 18:24:32 10° SSW 18:28:29 59° W 18:32:27 10° N
CZ-2C R/B 4.1 18:24:24 10° N 18:28:51 62° WNW 18:33:20 10° SSW
Cosmos 1464 Rocket 3.9 18:23:52 10° S 18:29:59 83° E 18:36:10 10° N
BREEZE-M R/B 3.3 18:27:45 10° WNW 18:30:30 51° SSW 18:35:09 10° SE
BREEZE-M DEB (TANK) 2.7 18:30:11 10° NW 18:32:12 40° NNE 18:32:12 40° NNE
SPOT 3 Rocket 3.5 18:27:44 10° SSE 18:32:54 65° ENE 18:38:04 10° N
Cosmos 44 Rocket 3.2 18:31:20 10° NNW 18:36:14 80° ENE 18:41:14 10° SE
FENGYUN 3A 3.6 18:32:58 10° SSE 18:38:18 63° ENE 18:43:38 10° N
Cosmos 292 Rocket 3.6 18:35:29 10° NNW 18:40:17 85° ENE 18:45:02 10° SSE
Okean 1-7 3.7 18:36:58 10° SSW 18:41:16 56° W 18:45:37 10° N
GPS 2-05 Rocket1 4.1 18:38:44 10° SW 18:41:26 26° S 18:41:40 26° SSE
Meteor 2-20 Rocket 4.4 18:37:32 10° N 18:43:32 56° E 18:49:28 10° SSE
Meteor 1-5 Rocket 4.3 18:38:50 10° N 18:43:53 42° ENE 18:48:52 10° SE
Meteor 1-27 Rocket 3.7 18:42:57 10° S 18:48:51 78° E 18:54:49 10° NNE
Cosmos 44 3.7 18:51:01 10° NW 18:55:41 62° WSW 19:00:35 10° SSE
Cosmos 1833 Rocket 3.6 18:50:33 10° NW 18:55:57 49° WSW 19:01:19 10° S
Lacrosse 5 3.9 18:53:32 10° NNW 18:56:03 14° N 18:56:22 13° N
Cosmos 2369 Rocket 3.3 18:54:32 10° SSE 18:57:34 26° SE 18:57:34 26° SE
Thor Agena Rocket 3.9 19:04:54 44° SE 19:04:54 44° SE 19:08:55 10° S
NOAA 12 4.2 18:59:19 10° S 19:04:37 75° WSW 19:09:57 10° NNW
Cosmos 405 4.2 19:04:47 10° NNW 19:08:12 42° W 19:11:35 10° SSW
ALOS 2.7 19:05:06 10° S 19:09:43 61° W 19:14:21 10° NNW
COSMO-SKYMED 1 4.0 19:09:18 10° N 19:13:17 36° WNW 19:17:15 10° SW
USA 234 3.1 19:14:25 48° NE 19:16:30 83° SE 19:23:03 10° SW
Tiangong 1 4.2 19:15:46 10° WSW 19:15:53 11° SW 19:15:53 11° SW
Cosmos 968 Rocket 3.7 19:13:41 10° SSW 19:18:48 66° WNW 19:20:41 39° N
Cosmos 1943 Rocket 4.5 19:19:01 10° SSE 19:19:04 10° SSE 19:19:04 10° SSE
CZ-4C R/B 3.0 19:20:03 10° NW 19:27:19 79° WSW 19:32:49 22° SSE
Cosmos 1634 Rocket 4.1 19:37:05 10° S 19:42:05 62° S 19:42:05 62° S
USA 229 DEB 4.1 20:04:02 10° SW 20:10:12 59° WNW 20:10:12 59° WNW
USA 229 4.1 20:04:08 10° SW 20:10:16 59° WNW 20:10:16 59° WNW
